Regional Weather Roundup
Issued by NWS

Home | Current Version | Previous Version | Text Only | Print | Product List | Glossary Off
Versions: 1 2 3 4 5 6 7 8 9 10 11 12 13 14 15 16 17 18 19 20 21 22 23 24 25 26

000
ASUS45 KCYS 290010
RWRWY

WYOMING REGIONAL WEATHER ROUNDUP
NATIONAL WEATHER SERVICE CHEYENNE WY
600 PM MDT WED JUN 28 2017

NOTE:  "FAIR" INDICATES FEW OR NO CLOUDS BELOW 12,000 FEET
WITH NO SIGNIFICANT WEATHER AND/OR OBSTRUCTIONS TO VISIBILITY.

WYZ001-290100-
YELLOWSTONE NATIONAL PARK

CITY           SKY/WX    TMP DP  RH WIND       PRES   REMARKS
LK YELLOWSTONE   N/A     42  41  96 SW5       30.12R
6HR MIN TEMP:  42; 6HR MAX TEMP:  60; 6HR PCP:  0.18;

W YELLOWSTONE  NOT AVBL

$$
WYZ002>013-054>058-071-098>099-290100-
NORTHERN WYOMING

CITY           SKY/WX    TMP DP  RH WIND       PRES   REMARKS
JACKSON        MOSUNNY   61  39  44 S17       30.01R
CODY           LGT RAIN  59  47  64 N17G30    29.92R
GREYBULL       FAIR      75  44  33 S12       29.77F
6HR MIN TEMP:  66; 6HR MAX TEMP:  82; 6HR PCP:  0.01;

WORLAND        FAIR      74  46  36 NE7       29.78F
6HR MIN TEMP:  62; 6HR MAX TEMP:  82; 6HR PCP:  0.07;

SHERIDAN       FAIR      66  53  63 NE9       29.81R
6HR MIN TEMP:  64; 6HR MAX TEMP:  83; 6HR PCP: TRACE;

BUFFALO        FAIR      62  49  62 N22G30    29.84R
6HR MIN TEMP:  59; 6HR MAX TEMP:  80; 6HR PCP:  0.16;

GILLETTE       PTSUNNY   66  50  56 NE14      29.81R
6HR MIN TEMP:  66; 6HR MAX TEMP:  80; 6HR PCP:  0.01;

NEWCASTLE      FAIR      81  36  19 NE9       29.74F

$$
WYZ014>020-022>026-101>103-290100-
CENTRAL WYOMING

CITY           SKY/WX    TMP DP  RH WIND       PRES   REMARKS
BIG PINEY      FAIR      58  38  47 NW15      30.05F
6HR MIN TEMP:  56; 6HR MAX TEMP:  76;

PINEDALE       CLOUDY    54  41  62 MISG      30.06F
DUBOIS         FAIR      59  32  36 W21       29.97R
LANDER         FAIR      70  30  22 W9G16     29.88S
6HR MIN TEMP:  67; 6HR MAX TEMP:  80;

RIVERTON       FAIR      70  33  25 W22       29.87R
6HR MIN TEMP:  68; 6HR MAX TEMP:  80; 6HR PCP: TRACE;

CASPER         FAIR      77  37  23 NW23G32   29.82R
6HR MIN TEMP:  74; 6HR MAX TEMP:  86; 6HR PCP: TRACE;

DOUGLAS        FAIR      82  32  16 NW24G39   29.78R
6HR MIN TEMP:  69; 6HR MAX TEMP:  87; 6HR PCP: TRACE;


$$
WYZ021-027>030-104>119-290100-
SOUTHERN WYOMING

CITY           SKY/WX    TMP DP  RH WIND       PRES   REMARKS
EVANSTON       FAIR      75  27  17 W25G32    30.01F
6HR MIN TEMP:  74; 6HR MAX TEMP:  78;

KEMMERER         N/A     64  36  34 NW26G33   30.03S
FORT BRIDGER   FAIR      78  24  13 W30G48    30.02F
ROCK SPRINGS   FAIR      66  34  30 N23G31    29.96S
6HR MIN TEMP:  65; 6HR MAX TEMP:  82;

DIXON          FAIR      83  26  12 W17G24    29.93F
RAWLINS        PTSUNNY   75  21  13 SW12G47   29.92S
6HR MIN TEMP:  75; 6HR MAX TEMP:  83;

SARATOGA       FAIR      77  27  15 NW7G22    29.95F
LARAMIE        FAIR      78  24  13 NW18      29.94F
6HR MIN TEMP:  71; 6HR MAX TEMP:  82;

CHEYENNE       FAIR      80  35  19 N12       29.90R
6HR MIN TEMP:  75; 6HR MAX TEMP:  85; 6HR PCP: TRACE;

TORRINGTON     FAIR      82  41  23 SE10      29.73S
6HR MIN TEMP:  80; 6HR MAX TEMP:  90;

PINE BLUFFS    FAIR      81  30  16 S17G30    29.80F

$$




USA.gov is the U.S. government's official web portal to all federal, state and local government web resources and services.